Nampa, ID

6:13 AM MST on December 09, 2019 (GMT -0700)
Nampa

Weather History for KMAN - October, 2019

Change the Weather History Date:

Wednesday, October 30, 2019

  Actual Average (WUND) Record (WUND)
Temperature  
Mean Temperature 26 °F -  
Max Temperature 41 °F - - (-1)
Min Temperature 12 °F - - (-1)
Degree Days  
Heating Degree Days 38    
Moisture  
Dew Point 5 °F    
Average Humidity 49    
Maximum Humidity 79    
Minimum Humidity 21    
Precipitation  
Precipitation 0.00 in - - ()
Sea Level Pressure  
Sea Level Pressure 30.51 in    
Wind  
Wind Speed 3 mph (SE)    
Max Wind Speed 7 mph    
Max Gust Speed -    
Visibility 10 miles    
Events      
Averages and records for this station are not official NWS values.
T = Trace of Precipitation, MM = Missing Value Source: NWS Daily Summary

Daily Weather History Graph

Daily Weather History Graph

Search for Another Location

Airport or City:

Astronomy

Oct. 30, 2019 Rise Set
Actual Time 8:18 AM MDT 6:39 PM MDT
Civil Twilight 7:49 AM MDT 7:09 PM MDT
Nautical Twilight 7:15 AM MDT 7:43 PM MDT
Astronomical Twilight 6:42 AM MDT 8:16 PM MDT
Moon 11:11 AM MDT (10/30) 8:46 PM MDT (10/30)
Length of Visible Light 11h 20m
Length of Day
10h 20m
Waxing Crescent, 9% of the Moon is Illuminated
Oct 30
Waxing Crescent
Nov 4
First Quarter
Nov 12
Full
Nov 19
Last Quarter
Nov 26
New

Hourly Weather History & Observations

Time (MDT) Temp. Windchill Dew Point Humidity Pressure Visibility Wind Dir Wind Speed Gust Speed Precip Events Conditions
12:15 AM 17.6 °F 10.7 °F -0.4 °F 45% 30.46 in 10.0 mi ESE 4.6 mph - N/A   Clear
12:35 AM 15.8 °F 8.6 °F -0.4 °F 49% 30.46 in 10.0 mi ESE 4.6 mph - N/A   Clear
12:55 AM 15.8 °F 8.6 °F -0.4 °F 49% 30.47 in 10.0 mi ESE 4.6 mph - N/A   Clear
1:15 AM 14.0 °F 6.5 °F -0.4 °F 53% 30.47 in 10.0 mi SE 4.6 mph - N/A   Clear
1:35 AM 14.0 °F - 1.4 °F 57% 30.47 in 10.0 mi Calm Calm - N/A   Partly Cloudy
1:55 AM 12.2 °F 4.3 °F 1.4 °F 62% 30.48 in 10.0 mi SE 4.6 mph - N/A   Clear
2:15 AM 12.2 °F 4.3 °F 1.4 °F 62% 30.48 in 10.0 mi ESE 4.6 mph - N/A   Clear
2:35 AM 12.2 °F 2.9 °F 1.4 °F 62% 30.48 in 10.0 mi SE 5.8 mph - N/A   Clear
2:55 AM 12.2 °F - -0.4 °F 57% 30.49 in 10.0 mi Calm Calm - N/A   Unknown
3:15 AM 12.2 °F 4.3 °F -0.4 °F 57% 30.49 in 10.0 mi SE 4.6 mph - N/A   Clear
3:35 AM 12.2 °F 4.3 °F -0.4 °F 57% 30.50 in 10.0 mi SE 4.6 mph - N/A   Unknown
3:55 AM 12.2 °F 2.9 °F 1.4 °F 62% 30.50 in 10.0 mi SE 5.8 mph - N/A   Unknown
4:15 AM 12.2 °F 4.3 °F 1.4 °F 62% 30.50 in 10.0 mi SE 4.6 mph - N/A   Unknown
4:35 AM 14.0 °F 6.5 °F 1.4 °F 57% 30.51 in 10.0 mi SE 4.6 mph - N/A   Unknown
4:55 AM 14.0 °F 5.1 °F 1.4 °F 57% 30.51 in 10.0 mi SE 5.8 mph - N/A   Unknown
5:15 AM 14.0 °F 5.1 °F 1.4 °F 57% 30.51 in 10.0 mi ESE 5.8 mph - N/A   Unknown
5:35 AM 14.0 °F - 3.2 °F 62% 30.51 in 10.0 mi Calm Calm - N/A   Unknown
5:55 AM 14.0 °F - 5.0 °F 67% 30.52 in 10.0 mi Calm Calm - N/A   Unknown
6:15 AM 12.2 °F - 5.0 °F 73% 30.52 in 10.0 mi Calm Calm - N/A   Clear
6:35 AM 12.2 °F - 5.0 °F 73% 30.53 in 10.0 mi Calm Calm - N/A   Clear
6:55 AM 12.2 °F - 5.0 °F 73% 30.53 in 10.0 mi Calm Calm - N/A   Unknown
7:15 AM 12.2 °F 4.3 °F 6.8 °F 79% 30.54 in 10.0 mi SE 4.6 mph - N/A   Unknown
7:35 AM 12.2 °F 4.3 °F 6.8 °F 79% 30.54 in 10.0 mi ESE 4.6 mph - N/A   Unknown
7:55 AM 12.2 °F 6.1 °F 6.8 °F 79% 30.54 in 10.0 mi SE 3.5 mph - N/A   Unknown
8:15 AM 14.0 °F 8.2 °F 8.6 °F 79% 30.54 in 10.0 mi SSE 3.5 mph - N/A   Unknown
8:35 AM 14.0 °F 5.1 °F 8.6 °F 79% 30.55 in 10.0 mi SE 5.8 mph - N/A   Clear
8:55 AM 14.0 °F 6.5 °F 8.6 °F 79% 30.56 in 10.0 mi SE 4.6 mph - N/A   Clear
9:15 AM 15.8 °F 8.6 °F 10.4 °F 79% 30.56 in 10.0 mi ESE 4.6 mph - N/A   Clear
9:35 AM 17.6 °F 10.7 °F 10.4 °F 73% 30.57 in 10.0 mi SE 4.6 mph - N/A   Clear
9:55 AM 19.4 °F 11.5 °F 12.2 °F 74% 30.57 in 10.0 mi SE 5.8 mph - N/A   Clear
10:15 AM 21.2 °F 13.6 °F 12.2 °F 68% 30.58 in 10.0 mi SE 5.8 mph - N/A   Clear
10:35 AM 24.8 °F 16.9 °F 12.2 °F 59% 30.59 in 10.0 mi SE 6.9 mph - N/A   Clear
11:15 AM 26.6 °F 19.1 °F 10.4 °F 51% 30.58 in 10.0 mi SSE 6.9 mph - N/A   Clear
11:55 AM 30.2 °F 23.4 °F 10.4 °F 44% 30.58 in 10.0 mi South 6.9 mph - N/A   Clear
12:15 PM 32.0 °F 26.4 °F 10.4 °F 41% 30.57 in 10.0 mi SSE 5.8 mph - N/A   Clear
12:35 PM 33.8 °F 28.6 °F 10.4 °F 38% 30.56 in 10.0 mi SSE 5.8 mph - N/A   Clear
12:55 PM 33.8 °F - 8.6 °F 35% 30.56 in 10.0 mi Calm Calm - N/A   Clear
1:15 PM 35.6 °F 32.8 °F 8.6 °F 33% 30.55 in 10.0 mi Variable 3.5 mph - N/A   Clear
1:35 PM 35.6 °F 32.8 °F 6.8 °F 30% 30.54 in 10.0 mi Variable 3.5 mph - N/A   Clear
1:55 PM 37.4 °F 32.1 °F 6.8 °F 28% 30.53 in 10.0 mi ESE 6.9 mph - N/A   Clear
2:15 PM 37.4 °F - 5.0 °F 26% 30.53 in 10.0 mi Calm Calm - N/A   Clear
2:35 PM 37.4 °F - 5.0 °F 26% 30.52 in 10.0 mi Calm Calm - N/A   Clear
2:55 PM 37.4 °F - 5.0 °F 26% 30.51 in 10.0 mi Calm Calm - N/A   Clear
3:15 PM 37.4 °F - 5.0 °F 26% 30.51 in 10.0 mi Calm Calm - N/A   Clear
3:35 PM 39.2 °F 35.0 °F 5.0 °F 24% 30.50 in 10.0 mi East 5.8 mph - N/A   Clear
3:55 PM 39.2 °F 37.0 °F 5.0 °F 24% 30.49 in 10.0 mi Variable 3.5 mph - N/A   Clear
4:15 PM 39.2 °F 35.9 °F 5.0 °F 24% 30.49 in 10.0 mi NW 4.6 mph - N/A   Clear
4:35 PM 39.2 °F - 5.0 °F 24% 30.49 in 10.0 mi Calm Calm - N/A   Clear
4:55 PM 41.0 °F 37.1 °F 3.2 °F 21% 30.48 in 10.0 mi SW 5.8 mph - N/A   Clear
5:15 PM 39.2 °F - 3.2 °F 22% 30.48 in 10.0 mi Calm Calm - N/A   Clear
5:35 PM 39.2 °F - 3.2 °F 22% 30.48 in 10.0 mi Calm Calm - N/A   Clear
5:55 PM 39.2 °F - 3.2 °F 22% 30.48 in 10.0 mi Calm Calm - N/A   Clear
6:15 PM 39.2 °F - 3.2 °F 22% 30.47 in 10.0 mi Calm Calm - N/A   Clear
6:35 PM 37.4 °F - 1.4 °F 22% 30.47 in 10.0 mi Calm Calm - N/A   Clear
6:55 PM 37.4 °F - 3.2 °F 24% 30.48 in 10.0 mi Calm Calm - N/A   Clear
7:15 PM 33.8 °F - 5.0 °F 30% 30.48 in 10.0 mi Calm Calm - N/A   Clear
7:35 PM 32.0 °F - 5.0 °F 32% 30.48 in 9.0 mi Calm Calm - N/A   Unknown
7:55 PM 32.0 °F - 6.8 °F 35% 30.48 in 10.0 mi Calm Calm - N/A   Unknown
8:15 PM 28.4 °F - 6.8 °F 40% 30.48 in 10.0 mi Calm Calm - N/A   Clear
8:35 PM 28.4 °F - 6.8 °F 40% 30.48 in 6.0 mi Calm Calm - N/A   Haze
9:15 PM 28.4 °F - 6.8 °F 40% 30.48 in 10.0 mi Calm Calm - N/A   Unknown
9:35 PM 26.6 °F - 8.6 °F 47% 30.49 in 10.0 mi Calm Calm - N/A   Clear
9:55 PM 24.8 °F - 6.8 °F 46% 30.49 in 10.0 mi Calm Calm - N/A   Clear
10:15 PM 24.8 °F 17.9 °F 5.0 °F 43% 30.49 in 10.0 mi SE 5.8 mph - N/A   Clear
10:35 PM 24.8 °F 17.9 °F 5.0 °F 43% 30.50 in 10.0 mi SE 5.8 mph - N/A   Clear
10:55 PM 23.0 °F 18.4 °F 6.8 °F 50% 30.49 in 10.0 mi SE 3.5 mph - N/A   Clear
11:15 PM 23.0 °F 17.0 °F 6.8 °F 50% 30.49 in 10.0 mi SE 4.6 mph - N/A   Clear
11:35 PM 21.2 °F 14.9 °F 8.6 °F 58% 30.49 in 10.0 mi SE 4.6 mph - N/A   Unknown
11:55 PM 21.2 °F 14.9 °F 8.6 °F 58% 30.49 in 10.0 mi SE 4.6 mph - N/A   Unknown